Precipitable_Water
1.27 1.25 1.27 1.29 1.29 1.27 1.24 1.24 1.25 1.32 1.33 1.35 1.33 1.30 1.28 1.29 1.31 1.32 1.33 1.29 1.31 1.25 1.17 1.15 1.15 1.13 1.11 1.08 1.06 1.06 1.05 1.05 1.10 1.13 1.12 1.12 1.14 1.15 1.16 1.16 1.12 1.10 1.09 1.07 1.07 1.06 1.06 1.05 1.07 1.10 1.14 1.11 1.13 1.13 1.12 1.12 1.11 1.07 1.03 0.99 0.94 0.92 0.86 0.79 0.69 0.63 0.66 0.70 0.67 0.65 0.65 0.62 0.56 0.52 0.44 0.44 0.42 0.41 0.39 0.37 0.37 0.40 0.42 0.42 0.44
1.19 1.16 1.21 1.28 1.28 1.30 1.31 1.30 1.31 1.30 1.31 1.33 1.30 1.29 1.28 1.30 1.33 1.33 1.31 1.30 1.32 1.24 1.15 1.16 1.18 1.16 1.12 1.08 1.06 1.06 1.06 1.07 1.10 1.10 1.09 1.07 1.08 1.11 1.12 1.12 1.11 1.09 1.09 1.04 1.04 1.06 1.07 1.06 1.07 1.09 1.13 1.11 1.11 1.09 1.09 1.10 1.09 1.03 0.98 0.96 0.93 0.89 0.90 0.81 0.73 0.67 0.62 0.66 0.64 0.65 0.58 0.59 0.49 0.51 0.43 0.39 0.40 0.42 0.39 0.39 0.40 0.43 0.45 0.46 0.47
1.19 1.20 1.25 1.31 1.33 1.31 1.30 1.29 1.28 1.24 1.22 1.29 1.29 1.25 1.24 1.26 1.34 1.33 1.33 1.31 1.29 1.18 1.11 1.13 1.15 1.16 1.13 1.08 1.05 1.04 1.04 1.05 1.06 1.05 1.03 1.00 0.99 1.03 1.08 1.09 1.08 1.06 1.04 1.03 1.04 1.08 1.07 1.05 1.05 1.08 1.10 1.07 1.07 1.08 1.10 1.11 1.11 1.06 1.01 0.98 0.93 0.90 0.88 0.84 0.75 0.67 0.65 0.65 0.66 0.62 0.57 0.53 0.49 0.47 0.45 0.43 0.44 0.45 0.41 0.41 0.43 0.46 0.48 0.50 0.51
1.22 1.23 1.24 1.27 1.30 1.30 1.28 1.25 1.24 1.16 1.15 1.24 1.26 1.26 1.29 1.30 1.32 1.32 1.32 1.33 1.23 1.14 1.12 1.11 1.12 1.12 1.09 1.06 1.05 1.02 1.01 0.99 0.98 0.98 0.97 0.95 0.97 1.00 1.03 1.04 1.05 1.05 1.04 1.03 1.06 1.07 1.05 1.03 1.05 1.07 1.09 1.05 1.04 1.10 1.12 1.15 1.16 1.14 1.05 1.00 0.95 0.90 0.87 0.82 0.80 0.73 0.73 0.66 0.67 0.62 0.63 0.57 0.52 0.50 0.47 0.46 0.45 0.45 0.46 0.46 0.48 0.48 0.50 0.54 0.56
1.18 1.16 1.18 1.22 1.25 1.28 1.27 1.30 1.26 1.23 1.28 1.31 1.30 1.29 1.30 1.30 1.33 1.29 1.28 1.26 1.18 1.14 1.12 1.11 1.09 1.06 1.03 1.04 1.03 1.03 0.99 0.95 0.92 0.94 0.96 0.99 0.98 0.97 0.98 0.99 1.01 1.01 1.02 1.04 1.08 1.08 1.05 1.04 1.07 1.10 1.09 1.03 1.05 1.09 1.12 1.12 1.14 1.09 1.00 0.98 0.95 0.90 0.87 0.83 0.79 0.78 0.75 0.70 0.68 0.67 0.68 0.66 0.64 0.60 0.55 0.50 0.51 0.53 0.54 0.53 0.52 0.52 0.54 0.58 0.60
1.14 1.15 1.17 1.18 1.22 1.25 1.28 1.27 1.30 1.30 1.32 1.38 1.37 1.36 1.34 1.34 1.32 1.27 1.30 1.23 1.18 1.14 1.11 1.10 1.04 1.03 1.06 1.06 1.08 1.04 0.98 0.95 0.95 0.95 0.96 0.97 0.96 0.96 0.96 0.96 0.96 0.96 0.97 1.01 1.08 1.11 1.09 1.10 1.12 1.13 1.11 1.05 1.04 1.08 1.09 1.06 1.05 1.01 0.96 0.93 0.90 0.88 0.86 0.83 0.79 0.77 0.78 0.74 0.69 0.66 0.68 0.66 0.65 0.62 0.61 0.59 0.58 0.58 0.60 0.63 0.64 0.64 0.62 0.61 0.64
1.07 1.10 1.14 1.16 1.19 1.21 1.25 1.27 1.27 1.24 1.26 1.32 1.37 1.40 1.37 1.33 1.32 1.29 1.29 1.24 1.18 1.12 1.10 1.06 1.07 1.08 1.06 1.06 1.07 1.03 0.97 0.97 0.96 0.96 0.95 0.94 0.92 0.90 0.90 0.92 0.92 0.93 0.94 0.98 1.06 1.10 1.17 1.11 1.14 1.17 1.10 1.11 1.06 1.03 0.99 0.96 0.95 0.92 0.90 0.88 0.85 0.80 0.77 0.75 0.76 0.76 0.76 0.73 0.70 0.69 0.68 0.70 0.68 0.63 0.65 0.65 0.64 0.62 0.60 0.60 0.62 0.68 0.69 0.67 0.65
1.02 1.06 1.11 1.16 1.17 1.18 1.18 1.21 1.23 1.27 1.32 1.34 1.36 1.38 1.37 1.34 1.27 1.30 1.30 1.25 1.19 1.13 1.08 1.08 1.08 1.06 1.03 1.04 1.03 0.99 0.95 0.94 0.95 0.92 0.89 0.88 0.85 0.85 0.85 0.87 0.88 0.90 0.92 0.96 1.01 1.05 1.15 1.23 1.14 1.18 1.16 1.19 1.08 0.98 0.94 0.90 0.91 0.88 0.87 0.82 0.79 0.76 0.73 0.73 0.72 0.72 0.72 0.71 0.68 0.69 0.71 0.69 0.69 0.71 0.70 0.68 0.64 0.64 0.67 0.65 0.62 0.65 0.67 0.71 0.72
0.97 1.01 1.06 1.09 1.14 1.18 1.18 1.18 1.24 1.29 1.36 1.32 1.32 1.32 1.36 1.35 1.28 1.26 1.30 1.26 1.20 1.14 1.10 1.09 1.01 0.93 0.98 1.00 0.98 0.96 0.94 0.92 0.91 0.87 0.86 0.85 0.86 0.83 0.83 0.84 0.86 0.88 0.89 0.93 1.00 1.06 1.12 1.14 1.12 1.12 1.20 1.18 1.11 1.02 0.98 0.95 0.90 0.86 0.86 0.83 0.79 0.76 0.73 0.72 0.72 0.71 0.70 0.69 0.67 0.70 0.69 0.68 0.69 0.67 0.67 0.67 0.67 0.69 0.72 0.70 0.68 0.70 0.71 0.69 0.72
0.95 0.97 1.00 1.05 1.12 1.18 1.20 1.22 1.25 1.32 1.34 1.31 1.32 1.33 1.36 1.33 1.29 1.25 1.24 1.33 1.22 1.13 1.09 1.03 0.94 0.91 0.93 0.93 0.95 0.98 0.97 0.94 0.91 0.88 0.87 0.85 0.83 0.84 0.84 0.84 0.86 0.87 0.88 0.90 0.97 1.04 1.07 1.07 1.07 1.13 1.16 1.11 1.06 1.01 0.99 0.97 0.95 0.92 0.89 0.85 0.81 0.78 0.75 0.73 0.71 0.71 0.70 0.68 0.68 0.68 0.67 0.68 0.69 0.70 0.69 0.72 0.75 0.75 0.72 0.72 0.67 0.70 0.70 0.69 0.71
0.91 0.95 0.98 1.04 1.09 1.14 1.17 1.20 1.25 1.27 1.31 1.33 1.33 1.33 1.33 1.31 1.25 1.24 1.22 1.23 1.22 1.14 1.07 0.97 0.92 0.91 0.89 0.88 0.93 0.95 0.95 0.94 0.90 0.89 0.88 0.87 0.86 0.85 0.83 0.83 0.85 0.87 0.87 0.88 0.93 0.99 1.01 1.02 1.05 1.06 1.05 1.03 1.00 0.99 0.98 0.97 0.96 0.94 0.92 0.91 0.89 0.86 0.82 0.80 0.80 0.79 0.76 0.76 0.77 0.74 0.71 0.69 0.72 0.73 0.72 0.73 0.75 0.74 0.74 0.73 0.71 0.71 0.69 0.67 0.64
0.89 0.93 0.98 1.04 1.08 1.10 1.14 1.17 1.19 1.23 1.29 1.33 1.32 1.33 1.34 1.32 1.24 1.21 1.22 1.19 1.17 1.14 1.05 0.96 0.92 0.91 0.91 0.91 0.93 0.92 0.92 0.92 0.90 0.89 0.87 0.88 0.88 0.87 0.87 0.86 0.85 0.86 0.85 0.87 0.93 0.97 0.97 1.00 1.03 1.03 1.02 1.00 0.99 0.99 1.00 0.99 0.97 0.95 0.94 0.93 0.92 0.92 0.92 0.89 0.85 0.84 0.84 0.81 0.80 0.81 0.80 0.80 0.83 0.87 0.88 0.90 0.92 0.93 0.91 0.86 0.81 0.77 0.75 0.74 0.75
0.88 0.92 0.97 1.01 1.05 1.09 1.13 1.14 1.16 1.19 1.23 1.29 1.30 1.31 1.33 1.31 1.22 1.20 1.20 1.19 1.14 1.10 1.04 0.98 0.92 0.92 0.93 0.93 0.94 0.92 0.90 0.93 0.90 0.89 0.86 0.85 0.86 0.88 0.90 0.93 0.89 0.85 0.84 0.87 0.93 0.98 0.98 0.98 0.99 1.02 1.04 1.04 1.04 1.04 1.03 1.01 1.01 0.99 0.97 0.96 0.96 0.96 0.96 0.96 0.95 0.91 0.89 0.85 0.83 0.84 0.85 0.87 0.87 0.90 0.95 0.94 0.96 0.89 0.89 0.88 0.90 0.91 0.91 0.88 0.89
0.87 0.90 0.94 0.99 1.02 1.06 1.12 1.16 1.16 1.18 1.25 1.27 1.28 1.29 1.31 1.29 1.24 1.21 1.21 1.19 1.13 1.09 1.04 0.99 0.96 0.92 0.92 0.95 0.94 0.92 0.90 0.95 0.96 0.93 0.89 0.84 0.85 0.90 0.92 0.96 0.96 0.94 0.90 0.89 0.92 0.96 0.98 0.98 0.98 0.99 1.01 1.01 1.01 1.01 1.00 0.98 0.96 0.94 0.93 0.94 0.95 0.98 0.99 0.99 0.97 0.96 0.97 0.93 0.90 0.86 0.91 0.92 0.87 0.91 0.96 0.97 0.90 0.87 0.88 0.88 0.92 0.90 0.89 0.89 0.95
0.81 0.84 0.88 0.92 0.97 1.02 1.07 1.15 1.19 1.20 1.24 1.27 1.25 1.27 1.29 1.26 1.20 1.19 1.16 1.15 1.12 1.06 1.01 0.99 0.96 0.94 0.94 0.96 0.96 0.94 0.94 0.96 0.97 0.93 0.91 0.87 0.89 0.94 0.96 0.99 1.00 0.99 0.99 0.95 0.92 0.93 0.95 0.97 0.97 0.98 1.01 1.01 1.02 1.01 0.97 0.95 0.93 0.91 0.89 0.89 0.92 0.93 0.94 0.93 0.91 0.91 0.93 0.95 0.94 0.92 0.92 0.93 0.92 0.93 0.95 0.97 0.97 0.96 0.95 0.92 0.93 0.93 0.93 0.96 0.94
0.81 0.83 0.85 0.86 0.89 0.95 1.02 1.09 1.18 1.22 1.24 1.26 1.25 1.24 1.26 1.24 1.17 1.15 1.16 1.12 1.09 1.07 1.06 1.01 0.96 0.93 0.93 0.95 0.96 0.96 0.97 0.99 0.98 0.97 0.95 0.92 0.91 0.95 0.96 0.97 0.99 1.00 1.00 0.99 0.96 0.95 0.96 0.96 0.95 0.95 0.97 0.99 1.01 1.00 0.98 0.97 0.94 0.92 0.90 0.91 0.91 0.91 0.92 0.95 0.96 0.97 0.97 0.97 0.96 0.95 0.94 0.95 0.94 0.93 0.93 0.92 0.92 0.93 0.95 0.96 0.96 0.94 0.90 0.86 0.84
0.79 0.81 0.83 0.85 0.87 0.93 0.99 1.04 1.14 1.20 1.22 1.24 1.24 1.23 1.21 1.20 1.17 1.16 1.09 1.08 1.05 1.04 1.02 0.99 0.97 0.93 0.93 0.94 0.93 0.94 0.97 1.00 1.01 1.01 0.99 0.96 0.91 0.93 0.96 0.96 0.96 0.95 0.97 0.99 1.00 0.99 0.97 0.97 0.96 0.95 0.95 0.96 0.97 0.97 0.98 0.99 0.94 0.91 0.88 0.85 0.85 0.84 0.85 0.90 0.92 0.92 0.93 0.93 0.93 0.93 0.93 0.93 0.92 0.92 0.91 0.91 0.91 0.91 0.90 0.85 0.82 0.88 0.84 0.80 0.82
0.78 0.81 0.82 0.84 0.87 0.91 0.95 0.99 1.07 1.17 1.19 1.18 1.21 1.22 1.22 1.19 1.16 1.12 1.10 1.06 1.01 1.00 1.02 0.99 0.96 0.95 0.93 0.93 0.93 0.92 0.95 0.99 1.01 1.02 1.02 1.01 0.97 0.92 0.94 0.94 0.94 0.93 0.94 0.96 0.96 0.96 0.97 0.98 0.96 0.94 0.94 0.95 0.97 0.98 0.99 0.97 0.90 0.88 0.86 0.84 0.84 0.84 0.85 0.88 0.89 0.90 0.91 0.89 0.89 0.90 0.91 0.90 0.89 0.89 0.89 0.89 0.90 0.90 0.84 0.77 0.83 0.84 0.78 0.78 0.74
0.77 0.80 0.84 0.86 0.87 0.90 0.93 0.96 0.98 1.06 1.10 1.14 1.17 1.19 1.18 1.17 1.15 1.13 1.11 1.06 1.00 1.01 1.01 0.98 0.96 0.95 0.95 0.95 0.96 0.95 0.95 0.98 1.02 1.04 1.05 1.05 1.04 1.01 0.98 0.95 0.92 0.93 0.94 0.96 1.00 1.00 1.00 0.98 0.97 0.97 0.98 0.98 1.00 0.99 0.97 0.94 0.91 0.89 0.86 0.83 0.81 0.82 0.85 0.86 0.85 0.84 0.85 0.84 0.84 0.85 0.85 0.86 0.86 0.86 0.87 0.88 0.88 0.88 0.88 0.84 0.83 0.77 0.70 0.70 0.70
0.76 0.81 0.85 0.88 0.88 0.88 0.90 0.93 0.95 0.98 1.06 1.11 1.13 1.15 1.15 1.13 1.12 1.11 1.10 1.06 1.03 1.02 1.00 0.98 0.95 0.95 0.97 0.97 0.96 0.96 0.96 0.98 1.01 1.02 1.04 1.05 1.06 1.06 1.04 0.98 0.92 0.94 0.98 0.97 0.98 0.99 0.99 0.98 0.99 1.00 0.95 0.93 0.92 0.90 0.89 0.88 0.86 0.84 0.83 0.80 0.78 0.77 0.79 0.77 0.77 0.78 0.78 0.79 0.82 0.85 0.86 0.88 0.89 0.87 0.85 0.85 0.83 0.82 0.79 0.77 0.75 0.72 0.67 0.64 0.62
0.76 0.79 0.82 0.85 0.87 0.88 0.89 0.90 0.92 0.95 1.01 1.06 1.11 1.12 1.12 1.10 1.08 1.05 1.03 1.04 1.02 1.01 1.00 0.98 0.97 0.96 0.98 0.98 0.98 0.98 0.99 0.98 0.99 1.01 1.01 1.01 1.02 1.01 0.99 0.99 0.98 0.98 0.97 0.98 0.99 0.96 0.97 0.98 0.98 0.98 0.98 0.95 0.92 0.89 0.87 0.85 0.83 0.80 0.78 0.75 0.75 0.76 0.77 0.74 0.75 0.76 0.76 0.77 0.79 0.83 0.85 0.84 0.83 0.81 0.77 0.73 0.71 0.69 0.67 0.63 0.60 0.57 0.53 0.48 0.47
0.75 0.77 0.78 0.81 0.83 0.86 0.88 0.90 0.93 0.96 1.00 1.05 1.06 1.06 1.08 1.08 1.05 1.04 1.03 1.02 1.00 0.97 0.96 0.95 0.95 0.94 0.93 0.97 0.97 0.98 0.99 0.99 1.00 1.02 1.02 1.01 1.01 1.02 1.00 1.00 1.01 0.98 0.95 0.95 0.96 0.96 0.97 0.97 0.96 0.97 0.96 0.95 0.93 0.90 0.87 0.85 0.84 0.82 0.81 0.80 0.80 0.79 0.77 0.80 0.80 0.80 0.82 0.83 0.83 0.80 0.74 0.68 0.64 0.62 0.61 0.59 0.56 0.54 0.53 0.51 0.51 0.49 0.50 0.50 0.47
0.69 0.72 0.75 0.77 0.80 0.82 0.86 0.89 0.91 0.96 0.96 0.99 0.99 0.97 1.00 1.03 1.02 1.02 1.01 0.99 0.98 0.96 0.94 0.95 0.93 0.93 0.93 0.94 0.96 0.96 0.97 0.97 0.97 0.95 0.95 0.96 0.97 0.97 0.97 0.97 0.98 0.98 0.94 0.90 0.89 0.89 0.89 0.89 0.89 0.89 0.89 0.87 0.86 0.85 0.84 0.82 0.81 0.78 0.75 0.74 0.74 0.74 0.74 0.74 0.75 0.75 0.73 0.71 0.66 0.60 0.57 0.56 0.53 0.52 0.51 0.50 0.50 0.51 0.50 0.49 0.49 0.48 0.47 0.48 0.48
0.62 0.63 0.66 0.71 0.75 0.78 0.82 0.86 0.89 0.92 0.94 0.95 0.95 0.96 0.96 0.96 0.98 0.99 0.99 0.97 0.95 0.94 0.94 0.93 0.92 0.90 0.89 0.89 0.91 0.91 0.92 0.92 0.92 0.92 0.92 0.91 0.92 0.93 0.94 0.93 0.93 0.92 0.91 0.88 0.87 0.86 0.85 0.85 0.85 0.84 0.82 0.81 0.79 0.78 0.77 0.77 0.77 0.78 0.77 0.76 0.75 0.73 0.70 0.67 0.64 0.61 0.59 0.55 0.52 0.49 0.48 0.48 0.48 0.47 0.47 0.49 0.48 0.47 0.46 0.46 0.45 0.44 0.44 0.44 0.44
0.65 0.63 0.62 0.63 0.68 0.73 0.78 0.81 0.85 0.87 0.91 0.92 0.92 0.92 0.92 0.94 0.92 0.94 0.95 0.93 0.92 0.90 0.90 0.91 0.89 0.88 0.87 0.86 0.87 0.89 0.90 0.91 0.91 0.91 0.90 0.89 0.90 0.91 0.90 0.91 0.89 0.88 0.86 0.87 0.86 0.85 0.84 0.83 0.81 0.80 0.79 0.79 0.79 0.79 0.78 0.76 0.75 0.74 0.73 0.71 0.69 0.66 0.63 0.59 0.56 0.53 0.49 0.47 0.46 0.46 0.45 0.45 0.45 0.45 0.45 0.45 0.44 0.44 0.43 0.42 0.42 0.41 0.42 0.42 0.42
0.64 0.65 0.64 0.63 0.63 0.67 0.71 0.75 0.79 0.83 0.86 0.89 0.90 0.91 0.91 0.91 0.90 0.91 0.91 0.91 0.90 0.88 0.87 0.87 0.86 0.86 0.85 0.85 0.86 0.87 0.88 0.88 0.87 0.88 0.88 0.87 0.87 0.85 0.84 0.83 0.81 0.80 0.80 0.79 0.79 0.78 0.78 0.78 0.78 0.78 0.78 0.77 0.76 0.74 0.71 0.69 0.68 0.65 0.63 0.61 0.59 0.57 0.55 0.53 0.52 0.49 0.46 0.45 0.44 0.42 0.42 0.42 0.41 0.41 0.40 0.39 0.37 0.36 0.37 0.37 0.38 0.38 0.39 0.39 0.38
0.64 0.65 0.64 0.64 0.63 0.62 0.64 0.69 0.73 0.76 0.78 0.82 0.84 0.85 0.86 0.86 0.85 0.85 0.85 0.85 0.85 0.85 0.86 0.85 0.84 0.84 0.84 0.84 0.85 0.85 0.84 0.83 0.82 0.82 0.81 0.81 0.80 0.81 0.79 0.78 0.78 0.78 0.77 0.76 0.75 0.74 0.74 0.73 0.72 0.71 0.69 0.68 0.65 0.64 0.61 0.60 0.58 0.57 0.56 0.56 0.55 0.54 0.53 0.50 0.48 0.45 0.43 0.41 0.40 0.38 0.38 0.37 0.38 0.36 0.34 0.33 0.32 0.33 0.36 0.35 0.35 0.36 0.37 0.39 0.38
0.65 0.66 0.67 0.67 0.66 0.65 0.64 0.64 0.65 0.70 0.74 0.75 0.76 0.77 0.78 0.80 0.79 0.80 0.80 0.81 0.81 0.81 0.81 0.80 0.78 0.77 0.77 0.79 0.80 0.79 0.79 0.79 0.79 0.78 0.78 0.77 0.74 0.72 0.71 0.70 0.70 0.70 0.69 0.68 0.67 0.66 0.63 0.63 0.62 0.61 0.59 0.57 0.57 0.55 0.55 0.54 0.54 0.53 0.53 0.52 0.50 0.49 0.47 0.46 0.44 0.41 0.39 0.38 0.36 0.35 0.34 0.33 0.31 0.31 0.31 0.31 0.31 0.33 0.36 0.34 0.34 0.35 0.37 0.38 0.35
0.67 0.67 0.68 0.69 0.68 0.66 0.66 0.66 0.65 0.62 0.62 0.66 0.71 0.73 0.73 0.74 0.76 0.77 0.79 0.80 0.79 0.79 0.79 0.78 0.78 0.78 0.77 0.75 0.73 0.71 0.70 0.69 0.70 0.73 0.72 0.72 0.69 0.67 0.65 0.64 0.63 0.61 0.61 0.60 0.58 0.58 0.57 0.56 0.54 0.53 0.52 0.51 0.50 0.50 0.50 0.50 0.49 0.48 0.46 0.45 0.44 0.43 0.41 0.39 0.36 0.34 0.34 0.33 0.32 0.31 0.30 0.30 0.30 0.31 0.31 0.31 0.31 0.32 0.35 0.34 0.34 0.33 0.34 0.35 0.33
0.67 0.67 0.68 0.68 0.70 0.69 0.67 0.65 0.65 0.64 0.62 0.59 0.59 0.60 0.63 0.66 0.69 0.71 0.73 0.78 0.81 0.81 0.79 0.77 0.78 0.77 0.74 0.74 0.72 0.65 0.62 0.63 0.66 0.66 0.66 0.65 0.65 0.64 0.64 0.63 0.62 0.61 0.60 0.60 0.58 0.54 0.53 0.51 0.51 0.50 0.50 0.49 0.47 0.46 0.45 0.43 0.42 0.41 0.41 0.40 0.39 0.37 0.36 0.35 0.34 0.33 0.32 0.31 0.31 0.31 0.31 0.31 0.30 0.30 0.30 0.30 0.32 0.33 0.35 0.34 0.33 0.34 0.33 0.32 0.32
0.64 0.65 0.65 0.66 0.68 0.70 0.70 0.68 0.66 0.64 0.63 0.62 0.61 0.59 0.58 0.62 0.63 0.62 0.62 0.64 0.65 0.66 0.68 0.70 0.72 0.73 0.72 0.69 0.70 0.69 0.66 0.65 0.64 0.62 0.61 0.60 0.59 0.59 0.59 0.60 0.60 0.60 0.61 0.59 0.56 0.54 0.52 0.49 0.48 0.47 0.46 0.44 0.42 0.41 0.40 0.39 0.38 0.37 0.36 0.35 0.34 0.33 0.32 0.32 0.32 0.33 0.33 0.32 0.32 0.32 0.31 0.31 0.30 0.31 0.31 0.31 0.31 0.32 0.33 0.35 0.35 0.35 0.34 0.34 0.33
0.60 0.61 0.63 0.64 0.66 0.67 0.68 0.70 0.69 0.66 0.65 0.63 0.62 0.61 0.61 0.60 0.62 0.65 0.65 0.64 0.63 0.63 0.63 0.63 0.64 0.65 0.66 0.67 0.67 0.67 0.67 0.66 0.64 0.63 0.62 0.61 0.61 0.61 0.60 0.60 0.60 0.58 0.57 0.55 0.50 0.48 0.47 0.44 0.43 0.42 0.41 0.39 0.38 0.38 0.37 0.35 0.35 0.34 0.33 0.32 0.31 0.32 0.32 0.32 0.34 0.33 0.32 0.32 0.31 0.32 0.32 0.32 0.32 0.32 0.32 0.32 0.32 0.33 0.33 0.33 0.34 0.34 0.35 0.36 0.36
0.57 0.58 0.60 0.60 0.61 0.62 0.64 0.66 0.66 0.67 0.66 0.65 0.63 0.63 0.61 0.59 0.57 0.57 0.61 0.65 0.65 0.64 0.63 0.61 0.61 0.61 0.63 0.63 0.63 0.61 0.61 0.61 0.61 0.61 0.60 0.59 0.58 0.58 0.56 0.55 0.54 0.53 0.52 0.48 0.45 0.43 0.42 0.41 0.39 0.38 0.38 0.36 0.36 0.35 0.35 0.34 0.33 0.33 0.33 0.32 0.31 0.32 0.33 0.34 0.35 0.34 0.33 0.33 0.33 0.33 0.33 0.33 0.32 0.32 0.32 0.32 0.32 0.31 0.32 0.32 0.33 0.33 0.34 0.34 0.34
0.54 0.55 0.55 0.56 0.56 0.57 0.60 0.62 0.63 0.64 0.65 0.64 0.64 0.63 0.63 0.62 0.60 0.58 0.56 0.55 0.57 0.59 0.60 0.59 0.58 0.58 0.58 0.60 0.60 0.59 0.58 0.57 0.55 0.54 0.53 0.52 0.51 0.50 0.50 0.49 0.49 0.48 0.46 0.42 0.41 0.38 0.38 0.37 0.36 0.36 0.36 0.35 0.35 0.34 0.33 0.33 0.33 0.33 0.33 0.32 0.33 0.33 0.34 0.35 0.34 0.33 0.33 0.33 0.33 0.33 0.33 0.33 0.33 0.32 0.32 0.32 0.33 0.33 0.32 0.32 0.32 0.32 0.32 0.33 0.34
0.52 0.52 0.53 0.54 0.55 0.54 0.55 0.58 0.60 0.61 0.63 0.63 0.63 0.62 0.62 0.62 0.62 0.61 0.59 0.57 0.56 0.54 0.54 0.55 0.56 0.55 0.53 0.52 0.53 0.53 0.52 0.52 0.52 0.51 0.51 0.50 0.49 0.48 0.47 0.43 0.40 0.40 0.41 0.40 0.38 0.37 0.36 0.35 0.35 0.35 0.34 0.33 0.33 0.33 0.32 0.32 0.33 0.33 0.33 0.33 0.33 0.34 0.34 0.34 0.33 0.34 0.34 0.33 0.33 0.32 0.33 0.33 0.34 0.34 0.33 0.32 0.32 0.31 0.32 0.32 0.33 0.33 0.33 0.34 0.35
0.50 0.50 0.50 0.50 0.51 0.51 0.51 0.54 0.56 0.57 0.58 0.60 0.61 0.61 0.61 0.61 0.60 0.60 0.59 0.59 0.58 0.57 0.57 0.59 0.59 0.58 0.56 0.54 0.51 0.49 0.48 0.48 0.48 0.47 0.46 0.46 0.45 0.44 0.39 0.37 0.36 0.37 0.36 0.37 0.36 0.36 0.35 0.35 0.34 0.33 0.34 0.33 0.33 0.32 0.33 0.33 0.34 0.34 0.35 0.34 0.33 0.34 0.34 0.34 0.34 0.34 0.35 0.34 0.34 0.34 0.33 0.34 0.34 0.34 0.33 0.33 0.32 0.32 0.32 0.33 0.33 0.34 0.34 0.34 0.35
0.49 0.48 0.48 0.49 0.50 0.49 0.49 0.50 0.51 0.53 0.55 0.57 0.57 0.57 0.58 0.58 0.58 0.58 0.57 0.56 0.56 0.56 0.55 0.56 0.57 0.58 0.58 0.57 0.55 0.52 0.50 0.48 0.46 0.45 0.45 0.44 0.44 0.41 0.38 0.37 0.35 0.35 0.34 0.34 0.35 0.34 0.33 0.34 0.34 0.34 0.34 0.33 0.34 0.34 0.34 0.34 0.35 0.35 0.35 0.35 0.35 0.34 0.34 0.35 0.35 0.35 0.34 0.34 0.34 0.34 0.33 0.33 0.33 0.33 0.33 0.31 0.31 0.32 0.32 0.33 0.33 0.33 0.34 0.34 0.34
0.49 0.47 0.47 0.47 0.48 0.48 0.48 0.48 0.49 0.50 0.51 0.53 0.54 0.54 0.54 0.55 0.55 0.55 0.54 0.54 0.54 0.53 0.52 0.52 0.52 0.52 0.51 0.52 0.55 0.53 0.50 0.49 0.47 0.45 0.45 0.44 0.42 0.40 0.39 0.38 0.38 0.36 0.36 0.36 0.36 0.35 0.34 0.35 0.35 0.34 0.35 0.35 0.35 0.35 0.35 0.34 0.35 0.35 0.35 0.35 0.35 0.35 0.36 0.35 0.35 0.35 0.34 0.34 0.33 0.33 0.33 0.33 0.33 0.33 0.32 0.31 0.31 0.32 0.32 0.33 0.33 0.33 0.33 0.34 0.34
0.46 0.47 0.47 0.46 0.45 0.45 0.46 0.46 0.47 0.47 0.47 0.48 0.49 0.50 0.50 0.50 0.50 0.51 0.51 0.50 0.50 0.49 0.49 0.48 0.48 0.47 0.47 0.48 0.48 0.48 0.46 0.43 0.40 0.39 0.39 0.40 0.40 0.40 0.39 0.38 0.37 0.37 0.37 0.37 0.36 0.35 0.35 0.35 0.35 0.36 0.35 0.35 0.35 0.35 0.35 0.34 0.35 0.35 0.36 0.36 0.35 0.35 0.34 0.33 0.32 0.33 0.33 0.33 0.33 0.33 0.32 0.32 0.32 0.32 0.32 0.32 0.32 0.32 0.32 0.32 0.32 0.32 0.32 0.32 0.33
0.42 0.44 0.45 0.45 0.44 0.44 0.44 0.45 0.45 0.45 0.45 0.45 0.46 0.47 0.47 0.47 0.47 0.47 0.46 0.45 0.45 0.45 0.45 0.45 0.44 0.44 0.45 0.45 0.44 0.45 0.41 0.40 0.38 0.38 0.38 0.38 0.38 0.39 0.38 0.37 0.37 0.37 0.37 0.37 0.36 0.36 0.36 0.35 0.35 0.35 0.35 0.35 0.34 0.34 0.35 0.35 0.35 0.35 0.35 0.34 0.33 0.32 0.32 0.32 0.32 0.32 0.32 0.33 0.33 0.33 0.32 0.32 0.32 0.32 0.32 0.32 0.32 0.33 0.32 0.31 0.32 0.32 0.32 0.31 0.32
0.38 0.40 0.40 0.41 0.41 0.42 0.42 0.42 0.43 0.43 0.43 0.43 0.43 0.43 0.43 0.44 0.45 0.45 0.43 0.42 0.42 0.43 0.43 0.43 0.43 0.43 0.43 0.42 0.42 0.42 0.40 0.39 0.39 0.39 0.38 0.38 0.38 0.37 0.37 0.38 0.38 0.37 0.38 0.37 0.37 0.37 0.36 0.35 0.35 0.35 0.35 0.35 0.35 0.35 0.35 0.35 0.34 0.33 0.32 0.32 0.32 0.32 0.32 0.32 0.32 0.32 0.32 0.32 0.31 0.31 0.31 0.31 0.32 0.31 0.30 0.31 0.32 0.32 0.32 0.32 0.31 0.31 0.31 0.32 0.31
0.38 0.38 0.37 0.38 0.38 0.37 0.38 0.40 0.41 0.42 0.43 0.43 0.42 0.42 0.42 0.42 0.43 0.43 0.42 0.42 0.42 0.42 0.42 0.42 0.42 0.43 0.42 0.41 0.40 0.40 0.39 0.38 0.38 0.38 0.38 0.38 0.37 0.37 0.37 0.37 0.38 0.38 0.38 0.37 0.37 0.37 0.36 0.36 0.36 0.36 0.35 0.36 0.36 0.36 0.36 0.35 0.34 0.34 0.33 0.33 0.32 0.32 0.31 0.31 0.31 0.31 0.30 0.29 0.29 0.29 0.29 0.30 0.30 0.31 0.31 0.31 0.31 0.31 0.30 0.31 0.31 0.31 0.31 0.30 0.30
0.39 0.39 0.39 0.38 0.37 0.36 0.36 0.36 0.37 0.38 0.40 0.40 0.40 0.42 0.42 0.42 0.42 0.42 0.41 0.41 0.42 0.42 0.41 0.41 0.41 0.41 0.41 0.40 0.39 0.38 0.37 0.37 0.37 0.37 0.37 0.37 0.37 0.37 0.37 0.37 0.37 0.38 0.38 0.38 0.39 0.38 0.38 0.37 0.37 0.37 0.37 0.37 0.37 0.36 0.36 0.35 0.35 0.35 0.34 0.33 0.32 0.31 0.30 0.30 0.29 0.29 0.29 0.29 0.29 0.29 0.29 0.29 0.29 0.30 0.30 0.30 0.30 0.30 0.30 0.30 0.30 0.30 0.30 0.30 0.30
0.38 0.39 0.40 0.40 0.39 0.38 0.37 0.35 0.35 0.37 0.38 0.38 0.39 0.39 0.40 0.40 0.41 0.41 0.41 0.41 0.41 0.41 0.41 0.40 0.40 0.39 0.38 0.38 0.38 0.36 0.35 0.34 0.34 0.35 0.36 0.36 0.36 0.36 0.36 0.37 0.37 0.37 0.38 0.38 0.39 0.39 0.38 0.38 0.37 0.38 0.39 0.38 0.38 0.38 0.37 0.37 0.36 0.35 0.33 0.32 0.30 0.29 0.28 0.28 0.28 0.28 0.29 0.29 0.29 0.29 0.29 0.29 0.29 0.29 0.29 0.29 0.29 0.29 0.29 0.29 0.29 0.29 0.29 0.29 0.29
0.35 0.37 0.37 0.38 0.39 0.39 0.37 0.37 0.36 0.36 0.37 0.37 0.37 0.37 0.38 0.38 0.38 0.39 0.40 0.40 0.39 0.40 0.39 0.39 0.39 0.38 0.37 0.37 0.37 0.36 0.35 0.34 0.34 0.34 0.35 0.35 0.34 0.35 0.35 0.36 0.37 0.37 0.37 0.37 0.38 0.39 0.39 0.39 0.38 0.38 0.38 0.39 0.39 0.39 0.38 0.37 0.36 0.34 0.32 0.29 0.27 0.27 0.27 0.28 0.29 0.30 0.30 0.29 0.29 0.29 0.29 0.28 0.28 0.29 0.29 0.29 0.29 0.29 0.28 0.29 0.29 0.28 0.28 0.27 0.27
0.33 0.34 0.34 0.35 0.37 0.38 0.39 0.38 0.38 0.37 0.37 0.36 0.36 0.36 0.37 0.38 0.38 0.39 0.39 0.39 0.39 0.39 0.38 0.38 0.37 0.38 0.38 0.36 0.37 0.36 0.35 0.34 0.34 0.33 0.33 0.34 0.34 0.34 0.35 0.35 0.36 0.36 0.37 0.37 0.38 0.38 0.39 0.39 0.38 0.38 0.37 0.37 0.37 0.37 0.36 0.35 0.33 0.31 0.29 0.28 0.27 0.27 0.28 0.29 0.29 0.29 0.29 0.29 0.28 0.28 0.28 0.28 0.28 0.28 0.28 0.28 0.28 0.28 0.28 0.28 0.28 0.28 0.28 0.27 0.27
0.35 0.35 0.35 0.35 0.35 0.37 0.37 0.37 0.37 0.37 0.37 0.36 0.36 0.36 0.37 0.37 0.38 0.38 0.39 0.39 0.39 0.39 0.38 0.37 0.36 0.37 0.37 0.37 0.36 0.35 0.35 0.34 0.33 0.33 0.32 0.31 0.32 0.33 0.33 0.34 0.35 0.36 0.36 0.37 0.38 0.38 0.38 0.38 0.38 0.37 0.36 0.36 0.35 0.33 0.31 0.30 0.29 0.27 0.25 0.25 0.25 0.26 0.26 0.27 0.27 0.28 0.28 0.28 0.28 0.27 0.26 0.26 0.25 0.26 0.26 0.26 0.25 0.25 0.25 0.25 0.25 0.26 0.26 0.26 0.25
0.35 0.35 0.36 0.36 0.36 0.36 0.38 0.39 0.38 0.38 0.37 0.37 0.37 0.38 0.38 0.38 0.37 0.38 0.38 0.38 0.38 0.38 0.38 0.36 0.36 0.36 0.38 0.38 0.36 0.36 0.35 0.34 0.34 0.33 0.32 0.30 0.30 0.30 0.30 0.30 0.31 0.33 0.34 0.35 0.36 0.36 0.36 0.36 0.36 0.35 0.33 0.31 0.29 0.28 0.26 0.25 0.25 0.24 0.24 0.24 0.25 0.25 0.26 0.27 0.27 0.27 0.27 0.27 0.27 0.26 0.25 0.24 0.23 0.22 0.21 0.21 0.21 0.21 0.21 0.21 0.21 0.22 0.23 0.24 0.25
0.35 0.35 0.36 0.36 0.36 0.36 0.38 0.39 0.40 0.39 0.39 0.38 0.38 0.38 0.38 0.38 0.37 0.37 0.38 0.38 0.38 0.38 0.38 0.36 0.36 0.38 0.38 0.36 0.36 0.36 0.36 0.35 0.34 0.33 0.32 0.31 0.30 0.29 0.29 0.28 0.27 0.27 0.29 0.30 0.31 0.32 0.32 0.31 0.30 0.29 0.28 0.27 0.26 0.25 0.24 0.24 0.24 0.24 0.24 0.25 0.25 0.25 0.25 0.26 0.26 0.27 0.27 0.26 0.25 0.24 0.23 0.21 0.19 0.17 0.16 0.16 0.17 0.17 0.17 0.17 0.17 0.17 0.18 0.20 0.22
0.34 0.35 0.36 0.36 0.35 0.35 0.37 0.39 0.41 0.41 0.41 0.41 0.40 0.39 0.39 0.39 0.39 0.39 0.39 0.39 0.39 0.38 0.35 0.37 0.38 0.38 0.38 0.38 0.37 0.36 0.35 0.34 0.34 0.33 0.32 0.32 0.31 0.30 0.28 0.27 0.26 0.25 0.25 0.25 0.25 0.25 0.25 0.25 0.25 0.25 0.25 0.25 0.25 0.25 0.25 0.25 0.25 0.25 0.24 0.24 0.24 0.23 0.23 0.23 0.23 0.23 0.24 0.23 0.22 0.22 0.21 0.19 0.16 0.14 0.14 0.15 0.15 0.15 0.15 0.15 0.15 0.16 0.17 0.18 0.19
0.33 0.32 0.33 0.33 0.31 0.32 0.35 0.37 0.39 0.40 0.41 0.41 0.41 0.41 0.40 0.40 0.39 0.40 0.40 0.40 0.39 0.38 0.37 0.37 0.38 0.39 0.38 0.38 0.38 0.37 0.37 0.36 0.35 0.34 0.33 0.32 0.31 0.30 0.29 0.27 0.26 0.25 0.25 0.25 0.25 0.26 0.26 0.26 0.26 0.26 0.26 0.26 0.25 0.25 0.25 0.24 0.24 0.23 0.23 0.22 0.22 0.21 0.21 0.20 0.20 0.20 0.22 0.22 0.21 0.20 0.19 0.17 0.14 0.14 0.15 0.15 0.15 0.14 0.14 0.15 0.16 0.17 0.18 0.18 0.19
Wind_Speed
19 19 19 19 19 19 19 19 20 20 20 21 21 21 21 21 21 21 21 21 21 21 21 20 19 19 19 19 19 18 18 17 17 17 17 17 16 16 16 16 16 16 15 15 15 15 14 14 14 14 14 14 14 14 14 14 14 14 14 14 13 12 11 10 10 9 10 10 10 11 11 11 11 12 12 12 12 13 12 12 12 13 13 13 13
17 17 18 19 19 19 19 20 20 20 20 21 22 22 21 21 21 21 22 22 22 22 21 21 20 20 20 19 19 19 18 18 18 18 17 17 16 16 16 16 16 16 16 16 15 15 15 14 14 14 14 14 14 14 15 15 14 14 14 14 14 13 12 12 11 10 10 10 10 11 11 11 12 12 12 13 13 13 13 13 14 14 14 14 15
14 15 16 18 19 20 20 20 20 20 20 20 21 22 22 22 22 21 22 22 22 22 22 22 21 21 20 20 19 19 18 18 18 18 17 17 17 17 16 16 16 16 16 16 15 15 15 15 14 14 14 14 14 14 14 14 14 14 14 14 15 14 14 13 12 12 11 11 11 11 11 12 12 12 13 13 13 14 14 14 15 15 16 16 17
13 15 16 18 19 19 19 19 20 20 21 21 21 22 22 22 22 21 21 21 22 22 22 22 22 21 21 20 19 18 18 18 18 18 17 17 17 17 16 16 16 16 16 15 15 15 15 15 15 15 14 14 14 14 14 14 15 15 15 15 15 15 15 15 14 13 12 12 12 12 12 12 13 13 13 14 14 15 15 15 16 16 17 18 18
13 15 17 18 19 19 20 20 20 21 22 22 22 22 22 23 22 22 21 21 22 22 22 22 22 21 21 20 19 19 18 18 18 18 17 17 17 16 16 16 15 15 15 15 15 15 15 16 16 15 15 15 15 15 15 15 15 15 15 15 15 16 16 16 16 15 14 14 13 13 13 13 13 13 14 14 15 16 16 17 17 18 18 19 20
12 15 17 18 18 19 20 20 21 22 22 22 22 23 22 22 22 22 22 22 22 22 22 22 22 22 21 20 20 19 18 18 18 17 17 17 16 16 16 15 15 15 15 15 15 15 15 15 16 16 15 15 15 15 14 15 15 15 15 15 15 15 16 16 16 16 16 15 14 14 14 14 15 15 15 15 16 17 17 18 19 19 20 20 21
12 14 16 18 19 19 20 20 21 22 22 22 23 23 23 23 23 23 23 23 22 22 22 22 22 22 21 21 20 19 19 18 18 17 17 17 16 16 16 15 15 15 15 15 15 16 16 16 15 16 16 15 15 15 14 15 15 15 15 15 15 15 14 15 15 16 16 15 15 15 15 15 15 16 16 16 17 18 19 19 20 20 20 21 21
13 15 16 18 19 20 20 21 21 21 22 22 23 23 24 24 24 24 24 24 23 22 22 22 22 22 21 21 20 19 19 18 17 17 16 16 16 16 16 15 15 15 15 15 15 16 16 16 15 16 16 15 15 14 14 14 14 14 14 14 14 14 14 14 15 15 16 16 15 15 15 16 16 16 17 17 18 19 20 20 21 21 22 22 22
13 15 16 18 19 20 21 21 22 22 22 22 23 23 24 24 24 25 25 25 24 23 22 22 22 21 22 21 20 19 18 18 17 17 16 15 15 15 15 15 15 15 15 15 15 15 16 15 15 16 16 14 14 14 13 13 14 14 14 14 14 14 14 14 15 15 15 16 16 16 16 17 17 18 18 18 19 20 21 21 22 23 23 23 24
13 14 15 17 19 20 21 21 22 22 22 23 22 23 23 24 24 25 26 25 24 23 23 22 21 21 22 21 20 19 19 18 18 17 16 15 14 14 14 15 15 15 15 15 15 15 15 15 15 15 16 15 14 13 13 13 12 13 13 13 13 13 14 14 14 15 15 16 16 17 17 18 19 19 20 21 21 22 22 22 23 24 25 25 25
13 14 14 15 17 18 20 21 21 21 22 23 23 22 23 23 24 25 26 26 26 24 23 22 21 21 22 21 20 19 19 19 18 18 17 16 15 15 15 15 15 15 15 15 15 15 15 14 14 15 16 15 14 14 13 12 12 12 12 12 12 13 13 13 14 15 15 16 16 17 18 19 19 20 20 21 22 22 23 23 24 24 24 25 25
13 13 14 14 15 16 19 20 21 21 21 23 23 23 22 23 23 25 26 27 27 25 23 22 21 21 21 21 20 19 19 18 18 18 17 17 16 16 15 15 15 15 15 15 15 15 15 15 15 15 15 15 15 14 13 13 12 12 12 12 12 13 13 13 14 15 15 16 16 17 18 18 19 19 20 20 21 21 22 23 23 23 24 24 25
13 13 13 13 14 15 17 19 21 21 21 22 23 23 22 23 23 25 26 26 28 27 24 22 21 21 22 21 20 19 19 18 18 17 17 17 17 16 16 16 16 15 15 15 15 16 16 16 16 16 16 15 15 15 15 14 14 14 14 14 14 14 14 14 15 16 16 17 17 18 19 19 20 20 21 21 22 22 23 23 23 24 25 26 26
12 12 12 13 13 14 15 17 19 20 20 21 22 22 22 22 23 25 25 26 28 27 24 22 22 22 22 21 20 19 19 19 18 18 17 16 16 16 16 16 16 16 15 16 16 16 16 17 17 17 16 16 16 16 16 16 16 16 16 16 16 16 16 16 16 17 18 19 19 19 20 21 21 22 22 23 23 24 24 24 25 25 26 27 27
12 12 12 13 13 13 14 14 15 17 18 19 20 21 21 22 23 24 25 27 28 28 25 23 22 22 22 21 20 20 19 19 18 18 17 16 16 15 15 15 16 16 16 16 16 16 17 17 17 17 17 17 17 17 17 17 17 17 17 17 17 17 17 18 18 19 19 20 20 21 21 22 23 23 24 25 25 26 26 26 27 27 28 29 29
12 12 13 13 12 12 12 11 11 14 16 18 19 20 20 22 23 24 25 26 27 27 26 23 22 22 22 22 21 20 19 19 19 19 18 17 17 16 16 15 16 16 16 16 16 17 17 17 17 17 18 18 17 17 17 17 17 17 17 17 17 18 18 19 19 19 20 20 21 22 23 24 24 25 26 26 27 27 27 28 28 29 29 30 31
12 12 13 13 12 11 10 9 8 10 13 14 17 19 19 21 22 24 25 26 26 27 26 23 22 23 22 22 21 21 20 19 19 20 19 18 18 18 17 16 16 16 16 16 17 17 17 17 18 18 18 18 18 17 17 18 18 18 18 18 19 19 20 20 20 20 21 22 23 23 24 25 25 26 26 27 28 28 28 29 30 30 31 32 32
12 12 12 12 12 11 9 7 6 7 10 12 15 18 19 20 22 23 24 25 26 26 26 24 23 23 22 22 21 21 21 20 19 20 20 19 19 19 18 18 17 17 17 17 17 18 18 17 18 18 18 18 18 18 18 19 20 20 20 20 20 21 22 22 22 22 23 23 24 25 25 25 26 26 27 27 28 29 29 30 31 31 32 33 34
12 12 12 11 11 10 8 7 6 6 8 11 13 16 18 20 21 22 23 24 25 26 25 24 23 22 22 21 21 21 21 20 20 20 20 19 19 20 19 19 18 18 18 18 18 18 18 18 18 18 18 18 18 19 19 20 21 21 22 22 22 23 24 24 25 25 26 26 26 26 26 26 27 27 27 28 28 29 30 30 31 32 33 34 35
12 12 11 10 10 9 8 7 6 5 5 8 12 15 16 18 19 21 22 24 24 25 24 23 23 22 21 21 21 21 21 21 20 19 19 19 19 19 19 19 19 19 18 18 18 18 18 19 19 19 19 19 19 20 20 21 21 22 22 22 23 24 25 26 26 27 27 27 27 27 27 28 28 28 28 28 28 29 29 30 31 32 33 34 35
12 11 11 10 9 8 7 6 5 4 3 5 9 12 14 15 17 19 22 23 23 23 22 22 22 21 20 20 20 20 20 21 20 20 20 20 20 20 20 20 20 20 20 20 20 20 20 21 21 21 21 20 20 21 21 22 22 23 23 24 25 26 27 27 28 28 28 28 28 27 27 27 27 27 27 28 29 30 30 31 32 32 33 34 35
12 11 11 10 9 8 7 7 5 4 3 4 7 9 10 11 13 16 19 21 21 21 20 21 21 21 20 20 20 20 20 20 20 20 20 20 20 20 21 21 22 22 22 22 22 23 23 23 23 23 23 23 23 23 23 23 24 24 24 25 25 25 26 26 26 26 26 25 25 24 25 25 26 27 28 29 30 31 31 32 32 33 33 34 34
12 12 11 10 10 8 8 7 6 6 5 6 7 8 8 9 10 12 14 16 18 19 19 20 20 20 20 20 20 20 20 20 20 20 20 20 20 20 21 21 22 22 22 21 21 21 22 23 23 24 24 24 24 23 23 23 23 23 23 23 24 24 24 24 23 23 23 23 23 24 25 26 27 28 29 30 31 31 32 32 32 33 33 33 34
12 11 11 11 10 9 8 8 7 7 7 7 8 8 9 10 11 12 12 13 14 15 18 19 20 20 20 20 21 21 22 22 21 20 20 20 21 21 21 22 22 22 21 20 20 20 21 21 21 21 22 22 22 21 21 22 22 22 22 22 23 23 23 23 22 22 23 23 24 25 26 27 28 29 29 30 31 31 31 32 32 32 33 33 33
11 11 11 11 10 10 9 9 8 8 8 9 9 9 9 10 11 12 13 13 13 14 15 17 19 19 19 20 21 22 22 23 23 22 21 22 22 22 22 21 21 21 20 20 20 19 19 19 19 19 20 20 20 20 21 21 21 21 21 21 21 22 22 22 22 23 23 24 25 26 27 27 28 29 29 30 30 30 31 32 32 32 32 32 33
12 11 11 11 10 10 9 9 9 8 8 8 9 9 9 10 11 12 13 14 14 14 14 15 17 18 18 19 20 21 22 22 23 22 21 21 20 19 18 18 18 18 18 18 18 17 18 18 18 19 19 19 20 20 20 20 19 20 20 21 21 22 22 22 23 23 24 24 25 26 27 27 28 29 29 29 30 30 31 31 32 32 33 33 34
12 12 11 11 10 9 9 9 9 9 8 8 8 8 9 9 10 10 11 12 12 12 13 13 14 15 16 17 18 19 19 19 19 18 18 17 17 16 16 16 17 17 17 17 17 17 17 18 18 18 18 18 19 19 19 20 20 20 21 21 21 22 22 23 23 24 24 25 25 26 27 27 28 28 29 29 30 30 31 32 32 33 34 35 35
12 12 11 10 10 9 9 9 9 9 9 9 9 9 9 10 10 10 11 11 11 11 12 12 12 12 13 13 14 14 14 15 15 15 15 16 16 16 16 16 17 17 17 17 17 17 17 17 18 18 18 18 19 19 19 20 20 20 21 21 21 22 22 23 23 24 24 25 26 26 27 27 27 28 29 29 30 31 32 33 33 34 35 36 37
13 12 11 10 10 10 10 10 9 9 9 10 10 10 10 10 11 11 11 12 12 12 12 12 12 12 12 13 13 13 13 13 13 14 15 15 16 16 16 16 17 17 17 17 17 18 18 18 18 18 19 19 19 19 19 20 20 20 21 21 22 22 23 23 24 24 25 25 25 26 26 26 27 28 29 29 30 32 33 34 34 35 36 36 36
12 12 12 11 11 11 11 11 11 11 11 11 11 11 11 10 10 11 11 11 11 11 11 12 12 13 13 13 13 13 13 12 13 13 14 14 14 15 16 16 17 17 17 18 18 18 18 18 18 19 19 19 19 19 19 20 20 20 21 21 22 22 23 23 23 24 24 24 25 25 26 26 27 28 29 30 31 32 33 34 34 35 35 36 36
12 13 13 12 12 12 13 13 13 13 13 13 12 12 11 10 10 10 10 11 11 11 11 11 12 13 13 13 13 13 13 13 13 13 14 14 14 15 16 16 17 17 18 18 18 18 19 19 19 19 19 19 19 19 20 20 20 21 21 22 22 22 22 22 23 23 23 24 24 25 26 27 28 29 30 30 31 32 33 33 34 35 35 35 35
13 13 14 14 14 14 14 14 14 14 14 14 13 13 12 12 11 11 11 11 11 12 12 12 12 13 14 14 15 15 15 15 14 14 15 15 15 16 16 17 17 18 18 18 18 19 19 19 19 19 19 19 19 20 20 20 21 21 21 21 21 21 21 21 22 22 23 24 24 25 26 27 28 28 29 30 31 32 32 33 34 34 34 34 34
14 14 15 15 15 15 14 14 14 15 15 15 15 15 14 14 13 13 12 12 12 12 12 13 13 13 13 14 15 15 15 15 15 15 15 16 16 16 17 17 18 18 19 19 19 19 19 19 19 19 19 19 20 20 20 21 21 21 21 20 20 20 21 21 22 22 23 23 24 25 26 27 27 28 29 30 31 32 32 33 33 33 33 32 32
16 16 15 15 15 16 16 15 15 15 15 15 16 16 15 15 15 14 14 14 13 13 13 13 13 13 13 14 14 15 15 15 16 16 16 17 17 17 18 18 18 18 19 19 19 19 19 19 19 19 19 19 19 20 20 20 20 20 20 20 20 20 21 21 21 22 23 23 24 25 26 27 28 28 29 30 31 32 32 32 32 31 30 30 29
17 16 16 15 15 16 16 16 16 16 16 16 16 16 16 16 16 16 16 15 15 15 15 15 15 15 15 15 15 16 16 17 17 17 18 18 18 18 18 19 18 18 19 19 19 19 19 19 19 19 19 19 19 20 19 19 19 19 19 19 20 20 20 21 21 22 23 24 25 26 26 27 28 29 29 30 30 30 30 30 30 29 28 27 26
17 16 16 16 15 15 15 16 16 16 17 17 17 17 16 16 16 16 16 16 16 16 16 17 17 17 17 17 17 17 17 17 18 18 18 18 19 19 19 19 18 18 18 18 18 18 18 18 19 19 19 19 19 18 18 18 18 18 18 19 19 20 20 21 22 23 24 24 25 26 26 27 28 28 29 29 29 28 28 28 27 27 26 25 24
17 17 17 17 16 16 15 15 15 16 17 18 18 18 18 18 18 17 17 17 17 17 17 18 18 18 18 19 19 18 18 18 18 18 18 18 19 19 19 18 18 18 18 18 18 18 18 18 18 18 17 17 17 17 17 17 17 18 18 19 20 20 21 22 22 23 24 25 25 26 27 27 27 27 27 27 27 27 26 26 25 24 24 23 22
17 17 17 17 17 17 16 16 16 16 16 17 18 19 20 19 19 19 18 18 18 18 18 18 19 19 19 20 20 20 19 19 18 18 18 18 18 18 18 18 18 18 18 18 18 17 17 17 17 16 16 16 16 16 16 17 17 18 19 19 20 20 21 22 22 23 24 24 25 26 26 26 26 26 26 26 25 25 24 24 23 22 22 21 20
17 17 17 17 17 17 17 17 17 17 17 17 18 19 19 20 20 20 19 19 19 19 19 19 19 20 20 20 20 20 19 19 18 18 18 18 18 18 18 18 18 18 18 17 17 17 16 16 16 16 16 16 16 16 17 17 18 18 19 19 20 20 21 22 22 23 24 24 24 25 25 25 25 25 25 25 24 23 23 22 21 20 20 19 19
17 17 17 17 17 17 18 18 18 17 17 17 18 19 20 20 20 20 20 20 20 20 20 20 20 20 20 20 20 20 19 19 19 18 18 18 18 18 18 18 18 18 17 17 17 16 16 16 16 16 16 16 16 17 17 17 18 18 18 19 20 20 21 22 22 23 23 24 24 24 24 24 24 24 24 23 22 21 20 20 19 19 18 18 18
16 17 17 17 18 18 18 18 18 18 18 18 18 19 20 21 21 20 20 20 20 20 20 20 19 19 19 19 19 19 19 19 19 19 18 18 18 18 17 17 17 17 17 17 17 17 17 16 16 16 16 16 17 17 17 17 18 18 18 19 20 20 21 22 22 22 23 23 23 23 23 23 23 23 23 22 21 20 19 18 18 18 17 17 17
15 15 16 17 18 18 18 18 19 19 19 19 19 19 20 20 21 21 20 20 20 20 20 20 19 19 19 19 19 19 19 19 19 19 18 18 18 18 18 18 18 18 18 18 18 17 17 17 17 16 16 17 17 17 17 17 18 18 18 19 20 20 21 21 22 22 22 22 22 22 23 23 22 21 21 20 19 18 18 17 17 17 17 17 17
13 14 15 16 17 17 18 18 19 19 20 20 19 19 20 20 20 20 20 20 20 20 20 20 20 19 19 19 19 19 19 19 19 19 19 19 19 19 19 18 18 18 18 18 18 17 17 17 17 16 16 16 17 17 17 17 17 18 19 19 20 20 20 20 21 21 22 22 22 22 21 21 20 19 19 18 18 17 17 16 16 16 16 16 16
12 13 13 14 15 16 16 16 17 19 20 20 19 19 20 20 21 21 21 20 20 20 20 21 21 20 20 20 20 19 19 19 19 19 19 19 19 19 19 19 18 18 18 18 17 17 17 16 16 16 16 16 16 16 16 17 17 18 18 19 19 19 19 20 20 21 21 21 21 20 20 19 18 18 17 17 17 16 16 16 15 15 15 15 15
11 12 13 14 14 14 15 15 16 17 18 19 19 19 19 20 21 21 21 21 21 21 22 22 22 22 21 21 21 21 20 19 19 20 20 20 19 19 19 18 18 17 17 17 17 17 16 16 16 16 15 16 16 16 16 17 17 17 17 18 18 18 19 19 20 20 20 19 19 18 18 17 17 17 16 16 16 15 15 15 15 15 15 15 15
11 12 12 13 14 14 14 14 15 15 17 18 18 18 18 19 20 21 21 21 22 22 22 22 23 22 22 22 22 22 21 20 20 20 20 20 19 19 19 18 18 18 17 17 17 16 16 15 15 15 15 15 15 15 16 16 16 16 17 17 17 17 18 18 18 18 18 17 17 17 16 16 16 16 16 16 15 15 15 15 15 14 14 14 14
12 12 12 12 13 13 13 13 14 15 15 16 17 17 18 18 19 20 20 21 21 21 21 22 22 22 22 23 23 23 22 21 21 20 20 19 19 19 19 18 18 18 17 17 16 16 15 15 15 15 14 14 14 14 15 15 15 15 15 15 15 16 16 16 16 16 16 15 15 15 15 15 15 16 16 15 15 15 15 15 15 14 14 14 14
13 13 13 13 12 12 13 13 13 14 15 15 16 16 17 17 18 19 19 20 21 21 20 21 21 21 21 22 23 23 22 21 21 20 19 19 19 18 18 18 18 17 17 16 16 16 15 15 15 14 14 13 13 13 13 13 13 13 13 14 14 14 14 14 14 14 14 14 14 14 14 15 15 15 15 15 14 14 14 14 14 14 14 14 14
13 13 13 13 13 13 12 12 13 13 14 14 15 15 16 16 16 16 17 18 19 20 20 20 20 20 20 21 22 22 22 21 21 20 19 19 18 18 18 17 17 17 16 16 16 15 15 14 14 14 13 13 12 12 12 12 12 12 12 12 13 13 13 13 13 14 14 14 14 14 14 14 14 14 14 13 13 13 14 14 13 13 13 13 13
14 14 13 14 14 13 13 13 13 14 14 14 15 15 15 15 15 15 15 16 17 17 18 18 19 19 19 19 20 21 21 21 20 20 19 18 18 18 17 17 17 17 16 16 15 15 14 14 13 13 12 12 12 11 11 11 11 11 11 11 12 12 13 13 13 13 13 13 14 14 14 14 13 13 13 13 12 13 13 13 12 12 12 12 12
14 14 14 15 15 14 14 14 14 15 15 15 15 15 15 15 15 15 15 15 15 15 15 16 17 17 17 18 19 20 20 20 20 19 19 18 17 17 17 16 16 16 16 15 15 14 14 13 13 12 12 11 11 10 10 10 10 11 11 11 12 12 13 13 13 13 13 13 13 13 13 13 12 12 12 12 12 12 12 12 12 12 11 11 11
Wind_Direction
235 233 233 234 233 232 233 234 233 232 233 232 231 231 231 229 226 225 223 221 220 220 221 221 223 224 225 225 226 226 226 225 225 226 227 229 231 232 233 233 234 236 236 236 236 235 235 235 236 235 233 232 231 231 231 230 231 232 232 233 233 237 240 240 242 242 239 240 241 241 241 240 239 238 238 239 241 243 246 248 249 250 250 252 254
232 232 236 238 237 235 235 234 233 232 233 233 231 230 230 229 228 226 224 221 220 220 222 223 225 225 224 224 225 226 226 224 224 225 226 228 231 233 234 234 236 237 236 236 236 235 235 234 234 233 231 232 232 231 231 230 230 230 230 231 232 237 242 242 241 240 239 241 243 243 244 243 243 242 241 243 245 246 249 251 252 253 254 255 257
230 234 241 245 243 240 239 237 234 233 234 234 231 229 230 229 228 226 224 223 222 222 223 224 225 224 223 223 225 226 225 223 223 224 226 229 231 232 233 235 236 236 236 236 235 234 233 232 232 231 230 231 232 231 230 230 229 228 230 232 234 238 242 242 242 241 240 242 245 247 247 246 247 247 246 246 248 250 253 255 256 256 257 259 261
239 242 246 249 248 245 242 239 236 234 234 234 231 229 229 228 226 225 224 223 222 222 222 223 223 222 221 223 225 224 224 223 223 225 227 229 230 231 233 234 235 236 236 236 234 233 232 230 230 230 230 230 231 231 230 229 228 229 232 235 237 239 241 242 243 244 243 244 247 250 250 250 251 251 249 249 250 253 255 256 258 259 260 262 264
249 249 249 250 249 248 245 242 240 237 236 235 233 229 227 226 225 225 223 221 220 220 220 221 221 219 220 222 222 222 223 224 224 226 228 229 230 231 232 233 235 236 236 236 234 232 231 230 229 229 230 231 231 231 230 228 228 231 235 238 240 242 244 244 245 246 247 247 249 251 252 252 253 253 252 252 254 256 257 259 261 262 264 266 267
257 254 253 252 251 249 247 245 243 243 242 240 236 231 228 226 225 224 222 220 219 218 218 220 219 219 219 219 220 222 223 224 224 225 226 227 229 231 232 233 235 237 238 236 234 232 231 230 230 231 230 230 230 229 228 227 229 233 237 240 242 245 247 246 246 246 247 248 250 253 253 253 254 255 255 256 257 259 262 264 266 266 267 269 270
269 263 259 257 255 252 250 249 248 247 245 241 237 233 230 228 227 225 222 219 218 218 219 219 218 218 218 218 219 221 222 223 224 225 225 227 229 230 232 234 236 237 238 236 233 232 230 229 230 230 229 230 229 228 228 229 231 234 238 241 243 246 247 246 245 244 246 248 252 254 255 256 256 257 260 261 262 265 266 268 269 269 270 271 273
278 274 268 263 259 256 255 253 251 248 244 239 236 234 232 230 229 226 222 218 218 219 218 218 218 217 217 217 218 219 220 222 222 224 226 227 229 230 230 232 234 236 237 235 233 231 229 229 229 227 226 226 226 225 227 230 231 235 239 242 244 246 246 245 245 246 248 251 254 256 257 258 258 260 262 264 265 267 268 268 270 272 273 274 275
286 281 275 269 264 259 258 256 253 249 244 239 236 234 232 230 228 224 220 217 217 216 216 217 218 216 214 214 216 217 220 221 220 222 224 225 226 228 229 231 233 236 237 234 232 230 228 230 229 224 220 220 221 224 228 232 235 237 240 243 245 245 245 246 247 249 250 251 254 256 257 258 260 261 263 265 266 269 270 270 271 274 276 276 276
299 293 285 277 268 261 258 257 255 251 244 239 235 232 230 229 225 220 216 215 214 212 213 215 216 214 213 213 214 216 219 220 220 221 223 223 224 227 229 232 233 235 235 232 230 228 227 227 225 218 216 219 223 227 231 237 239 240 241 243 244 244 245 246 248 249 250 252 255 257 258 261 264 264 266 268 271 273 275 274 275 277 279 279 278
307 303 297 287 276 266 259 257 255 252 245 238 234 231 229 227 222 217 214 214 212 210 211 213 214 213 212 212 213 216 219 220 221 224 224 225 226 228 230 232 232 232 232 230 227 224 222 222 220 217 218 222 226 230 235 240 242 243 244 244 245 246 247 248 250 252 253 255 258 260 262 265 267 268 269 272 274 277 278 278 279 280 281 281 281
313 310 306 297 287 275 264 256 253 252 247 238 233 230 226 223 219 215 214 212 209 208 210 213 213 212 210 211 214 217 218 220 223 225 227 227 228 229 231 230 228 228 229 228 225 221 219 220 221 222 224 227 231 235 238 242 245 246 247 247 249 252 253 255 256 256 257 259 262 265 267 269 271 272 273 274 276 277 279 280 280 280 281 281 281
317 314 312 307 298 286 272 260 252 250 246 238 232 227 223 220 217 213 212 210 207 207 211 213 212 211 210 211 215 216 218 221 223 226 228 228 227 228 230 227 225 226 228 228 226 223 222 223 225 228 230 232 236 239 242 245 248 249 250 252 255 258 261 262 262 262 262 264 267 270 271 273 274 274 275 275 276 278 279 280 280 280 281 282 282
319 314 313 313 307 296 283 267 254 247 242 235 229 224 220 217 214 212 211 209 206 207 211 212 211 211 212 213 216 217 218 222 224 225 227 226 224 226 227 225 223 224 226 227 227 227 227 228 229 231 234 237 240 243 245 247 249 251 254 255 258 261 264 266 267 268 269 270 271 274 276 276 276 277 277 278 278 279 280 281 281 282 282 283 284
323 319 317 317 314 306 294 276 257 245 239 232 227 222 219 216 213 212 211 208 206 208 210 212 212 212 212 214 216 216 218 221 222 224 226 225 224 225 226 225 224 224 225 226 227 228 230 231 232 234 237 241 244 246 247 248 250 252 255 257 259 262 265 268 270 272 273 273 274 276 278 279 279 279 280 280 280 281 282 282 283 284 285 285 286
326 326 324 322 318 313 307 291 264 242 233 228 223 220 218 216 213 210 209 207 207 208 210 212 213 212 213 215 216 217 220 222 222 224 227 227 227 227 226 226 226 226 227 228 229 230 232 233 234 236 239 242 246 248 249 250 252 253 256 258 261 265 268 271 274 275 274 274 276 278 279 280 280 280 280 281 281 282 283 284 285 285 286 287 288
328 328 328 326 321 318 314 303 273 240 227 224 220 217 216 214 211 208 207 207 207 207 209 212 214 214 214 216 217 218 222 225 225 225 227 229 230 228 227 227 228 229 230 231 231 232 234 235 236 238 240 243 246 248 249 251 254 257 259 261 264 267 270 272 274 276 276 277 278 279 279 281 282 281 281 281 282 283 284 285 285 286 286 287 288
326 327 329 329 326 323 317 305 281 247 232 227 220 215 212 209 208 207 207 208 207 205 207 211 213 214 214 216 218 219 223 226 227 227 228 230 231 229 228 229 230 231 232 233 234 236 237 239 241 241 242 245 249 251 254 256 258 260 262 264 267 269 271 273 275 277 278 279 280 280 280 281 282 282 282 283 284 284 284 285 286 286 287 287 288
320 322 326 329 329 329 325 311 295 269 242 227 216 211 208 206 207 207 207 207 206 205 207 210 212 213 215 217 220 222 224 226 228 228 228 229 230 230 230 231 231 232 233 234 237 241 242 242 243 245 247 250 252 255 258 259 260 261 263 266 269 271 273 274 275 276 277 278 279 280 279 280 281 282 283 284 285 286 285 286 287 288 289 289 290
314 314 317 323 326 330 330 323 311 293 255 222 206 203 203 205 206 207 207 207 206 206 209 212 212 214 217 219 222 224 225 226 227 229 230 230 229 229 230 232 232 232 234 236 239 243 245 245 246 249 251 253 254 257 260 261 262 263 266 268 270 271 273 274 274 275 275 276 277 278 278 279 280 281 283 284 286 287 288 289 290 290 290 291 291
310 310 310 313 317 318 319 318 313 302 268 216 197 196 199 203 206 206 207 208 208 210 213 215 215 216 220 223 225 226 227 226 228 231 232 231 230 231 233 235 237 237 239 240 241 243 245 247 249 251 252 254 256 259 261 263 264 266 268 269 270 271 272 273 274 275 275 275 276 277 277 278 279 281 283 285 287 290 291 292 292 291 291 291 291
305 307 307 307 308 307 304 299 293 282 262 227 209 207 208 208 208 209 210 211 213 215 218 217 216 218 223 226 227 228 228 228 230 231 232 232 233 236 238 241 244 244 244 244 244 245 247 249 251 252 253 255 259 261 263 264 266 267 268 270 271 272 273 274 274 275 275 274 275 276 278 280 281 283 285 287 288 290 291 292 292 293 293 293 293
299 302 303 304 304 302 295 285 276 268 259 240 226 224 223 218 213 212 213 215 216 218 219 219 218 220 225 228 230 230 231 231 232 233 234 235 237 240 243 246 247 246 245 245 246 247 247 249 250 251 252 255 259 261 263 265 266 267 269 271 272 273 274 275 276 276 275 275 277 278 280 282 283 285 286 287 288 290 291 293 293 294 295 295 295
297 300 301 301 302 299 292 281 269 261 255 244 232 228 229 227 221 216 214 215 216 218 221 222 223 225 229 231 233 234 234 234 235 238 242 243 243 245 247 247 245 243 242 244 246 247 247 248 250 251 253 255 258 261 263 264 265 267 269 270 272 273 274 275 275 276 277 278 280 281 283 284 285 286 288 288 290 291 292 294 295 295 295 295 295
296 299 300 301 299 295 288 282 271 260 252 247 241 236 234 230 226 223 221 222 223 224 225 225 227 230 233 234 234 235 236 237 240 245 248 248 247 247 245 243 241 241 241 242 243 245 247 249 250 252 254 256 258 260 262 264 265 267 269 271 272 273 274 275 276 278 280 282 283 284 285 287 287 289 290 291 292 293 293 294 295 295 295 295 295
290 292 294 297 297 292 285 280 272 260 250 246 243 240 237 232 228 226 227 228 231 233 233 232 233 234 236 236 236 237 239 241 243 245 245 244 243 241 236 233 234 237 239 241 243 245 247 249 251 252 254 255 257 259 262 264 267 269 272 273 274 275 277 278 279 281 282 283 285 286 287 289 290 291 292 293 293 294 294 294 295 295 294 294 295
287 286 285 286 287 286 280 275 269 260 252 246 242 242 243 240 234 231 230 230 232 233 234 234 236 237 238 239 239 240 240 239 238 237 235 233 233 233 231 231 233 235 237 240 242 243 245 248 250 251 253 256 258 261 263 266 269 271 273 275 276 277 279 280 281 282 284 285 287 288 290 291 291 292 293 293 294 295 295 295 295 295 294 294 295
283 282 279 277 277 276 272 267 262 257 251 245 244 248 252 247 241 239 239 238 236 236 236 236 236 234 232 232 231 229 228 228 228 227 227 227 228 230 231 232 234 235 236 238 241 245 248 250 252 254 257 259 261 264 266 268 270 272 274 275 277 278 280 282 283 285 287 288 289 290 291 291 292 293 293 294 295 295 295 295 295 295 294 294 295
275 274 273 272 272 272 268 262 256 253 248 243 244 251 255 251 246 244 243 242 241 241 241 239 237 235 232 228 225 222 221 224 225 225 226 228 230 232 233 234 236 238 240 243 247 250 252 254 256 258 259 261 263 266 267 269 271 273 275 277 279 281 283 285 286 288 289 289 290 290 291 292 293 294 295 295 296 296 296 296 296 296 296 296 297
273 271 269 268 269 270 269 264 258 254 250 247 247 250 252 252 250 248 245 243 242 242 241 239 238 239 238 234 230 228 228 231 233 234 235 236 237 239 241 242 242 244 245 248 251 253 255 257 259 260 261 263 265 266 268 270 273 275 278 280 282 283 285 286 287 288 289 290 290 291 292 293 294 295 296 296 297 297 297 298 298 298 299 299 299
274 273 271 268 267 267 267 265 261 256 252 250 249 248 247 248 251 253 250 247 246 246 244 242 240 240 238 235 234 237 238 239 242 245 246 246 246 246 247 248 249 251 252 254 256 258 259 259 260 261 262 264 266 267 269 272 274 277 279 281 283 285 286 287 288 288 289 290 292 293 294 295 295 296 297 297 298 299 299 300 300 300 301 301 302
274 273 271 269 267 266 265 262 259 255 253 252 251 250 247 246 248 253 254 251 249 249 250 249 247 245 242 239 240 243 245 246 248 249 250 251 252 252 253 254 255 256 257 258 259 259 259 259 259 261 262 264 266 269 271 274 277 279 281 283 285 286 286 287 288 289 290 292 293 294 294 295 296 297 298 299 300 301 302 302 302 302 303 304 304
272 271 269 267 265 264 263 261 257 253 251 251 251 250 250 248 247 249 253 254 253 253 253 253 251 248 246 243 243 245 247 249 251 251 253 254 256 256 257 257 258 258 258 258 258 258 259 259 260 262 264 266 268 271 274 277 279 281 282 283 284 285 286 287 288 289 291 292 293 294 295 297 298 299 300 301 302 303 304 304 304 305 305 306 307
271 271 268 265 263 262 260 259 256 252 249 249 249 249 249 248 247 248 250 253 254 255 255 256 255 252 250 250 249 249 250 252 253 254 255 256 257 256 256 256 258 260 259 259 259 260 260 261 262 264 266 268 271 273 275 277 279 280 280 282 283 284 286 287 288 290 291 293 295 296 298 299 300 301 302 303 304 305 306 306 306 307 307 308 308
274 273 270 267 265 264 261 258 256 252 249 248 249 249 248 247 247 247 248 249 250 251 253 255 257 257 257 256 256 256 255 255 255 256 256 256 256 256 256 256 258 259 260 259 260 260 261 262 263 265 268 270 272 274 275 276 277 277 278 280 282 284 286 287 289 292 294 296 297 299 300 301 302 303 304 305 306 307 307 307 308 308 308 308 308
272 272 271 268 267 266 262 259 257 255 250 247 247 247 247 247 248 248 249 250 250 251 253 254 256 258 259 259 258 259 259 258 258 258 258 258 257 257 257 257 257 259 259 260 260 261 262 263 265 267 269 271 272 273 274 275 275 276 278 281 283 285 288 290 292 294 296 298 299 301 302 303 304 304 305 306 307 308 308 308 308 308 308 308 308
267 267 268 266 265 264 262 260 259 258 254 250 248 247 247 248 249 250 251 252 253 255 256 257 258 260 262 262 261 261 261 261 261 261 261 261 260 259 258 257 258 259 259 260 260 261 262 264 265 267 268 269 270 271 273 275 277 279 282 284 286 288 290 292 294 296 298 299 300 302 303 305 305 306 306 307 307 308 309 309 309 308 308 308 309
265 263 264 263 262 262 261 261 261 261 259 255 252 250 249 249 250 252 253 253 254 255 256 257 259 260 262 263 263 263 263 263 262 261 260 259 259 258 257 256 255 255 256 258 259 261 262 264 265 266 267 268 270 273 276 278 281 283 285 287 289 291 293 295 296 298 299 300 301 303 304 305 306 307 308 309 309 309 309 309 309 308 308 309 310
267 264 263 264 264 264 263 262 262 262 261 259 256 253 251 251 251 252 252 252 252 253 254 255 257 258 259 260 262 262 262 261 260 257 256 256 255 255 254 254 253 253 255 257 259 260 261 263 264 266 268 270 272 275 278 281 283 285 287 289 291 293 295 297 298 299 300 301 302 304 305 306 307 308 309 310 309 309 308 308 308 308 309 310 311
268 266 264 265 266 267 266 265 264 264 263 261 259 256 254 253 252 253 253 253 253 253 253 254 255 256 257 258 260 260 260 259 257 255 254 254 254 254 254 253 253 254 256 256 257 258 259 261 263 266 268 271 274 277 280 282 284 287 289 291 293 295 297 298 300 301 302 302 303 304 305 307 308 309 310 310 309 308 307 307 308 309 310 311 312
272 269 267 266 266 266 266 265 265 264 264 263 262 260 258 256 255 255 255 255 255 254 255 255 257 258 258 259 260 260 260 257 255 255 254 253 253 253 253 253 253 253 253 254 256 257 259 261 263 266 269 272 275 278 281 284 286 288 290 292 295 297 298 300 301 302 303 304 305 306 306 307 308 308 308 308 307 307 306 307 307 309 311 312 313
280 276 273 271 269 267 266 264 263 263 263 263 264 263 261 258 255 254 254 254 254 254 254 255 256 258 259 259 259 259 259 256 254 253 253 252 253 253 253 253 253 253 254 255 257 260 262 263 265 267 270 273 276 279 282 284 286 289 291 294 296 297 299 301 302 303 304 305 306 307 307 308 307 307 306 306 306 306 306 307 308 309 311 312 314
289 285 281 278 274 271 267 264 262 261 261 262 263 263 262 258 255 254 254 253 253 253 253 254 255 256 257 256 256 256 256 255 253 252 252 253 253 254 254 254 254 254 255 256 258 260 262 263 265 267 270 273 277 280 283 285 287 290 293 295 296 298 300 301 303 304 305 306 306 307 307 307 307 306 306 306 306 307 307 307 308 309 311 312 314
299 295 291 287 282 276 272 268 266 264 263 263 264 265 263 260 256 254 254 253 254 254 254 254 255 256 256 256 255 256 256 256 255 254 254 254 254 254 254 254 254 255 255 257 257 258 260 262 264 267 271 274 278 281 284 286 288 291 294 296 297 299 300 302 303 305 305 305 306 306 306 306 307 307 306 307 307 308 309 308 308 309 310 312 314
308 304 300 296 290 283 277 273 271 270 268 267 268 267 266 263 259 256 255 255 256 256 257 257 256 256 255 255 256 256 257 257 258 257 256 255 254 254 254 254 255 255 255 256 257 257 259 261 264 268 272 275 278 282 284 287 290 292 294 296 298 299 301 303 304 305 305 305 305 305 305 305 306 306 307 307 308 308 309 309 308 308 310 311 314
317 312 307 303 298 291 284 279 275 274 273 273 272 270 269 266 262 258 257 258 258 259 260 260 258 256 255 255 256 256 257 257 258 259 257 255 254 253 253 254 254 254 255 255 256 256 257 259 262 266 270 273 277 281 284 287 290 292 295 297 298 300 302 304 305 306 306 305 304 304 304 305 306 306 307 307 307 307 308 308 307 307 308 309 311
323 320 316 311 305 299 293 286 281 278 276 277 277 275 273 270 266 263 261 261 261 262 262 261 258 256 255 255 255 256 257 257 258 258 257 255 254 253 253 253 253 253 253 254 254 254 256 257 260 263 267 271 275 280 283 286 289 292 294 297 300 302 304 305 306 307 307 306 305 305 305 306 307 307 307 307 306 306 306 306 305 305 306 306 308
326 325 323 318 313 307 301 294 288 282 279 278 280 280 279 275 271 268 266 264 264 264 264 262 260 259 258 256 255 255 256 257 257 256 255 255 254 253 253 253 252 252 252 252 253 253 254 256 258 262 266 270 274 278 282 285 288 291 295 298 301 304 306 307 308 308 308 308 307 307 307 308 309 309 309 308 307 306 306 305 304 303 303 304 306
328 328 327 324 320 313 307 301 295 289 284 280 280 282 283 281 277 273 271 269 267 266 265 262 260 260 260 258 256 254 254 254 254 253 253 253 252 252 251 251 251 250 250 250 250 251 252 254 257 260 264 268 273 277 281 284 288 291 295 299 303 305 307 308 309 309 309 310 310 310 310 311 312 312 311 311 310 309 309 308 307 306 305 304 304
328 327 327 326 323 318 310 304 299 293 287 283 280 280 282 282 281 279 277 275 273 271 267 263 261 261 261 258 256 253 252 251 250 250 250 250 250 249 249 249 249 248 248 247 247 247 248 251 254 258 262 266 270 275 280 284 288 292 296 300 304 307 309 310 310 310 310 311 311 312 312 313 314 313 313 313 312 312 312 312 311 310 308 306 305
328 326 325 325 326 323 316 309 304 298 291 285 280 278 278 279 280 281 280 278 276 274 270 265 263 262 261 259 256 253 250 248 247 247 247 247 247 247 246 245 245 245 245 244 244 244 246 249 252 256 259 263 268 273 279 284 288 292 296 300 304 307 309 311 311 310 310 310 311 312 313 314 315 314 314 313 313 314 314 314 313 313 312 310 308